Brussels, Belgium

7:41 AM CEST on May 28, 2017 (GMT +0200)
Brussels Airport

Weather History for EBBR - October, 2013

Change the Weather History Date:

Monday, October 7, 2013

  Actual Average Record
Temperature  
Mean Temperature 56 °F -  
Max Temperature 66 °F 55 °F 68 °F (1997)
Min Temperature 46 °F 43 °F 37 °F (2002)
Degree Days  
Heating Degree Days 9    
Growing Degree Days 6 (Base 50)    
Moisture  
Dew Point 50 °F    
Average Humidity 81    
Maximum Humidity 100    
Minimum Humidity 54    
Precipitation  
Precipitation 0.00 in - - ()
Sea Level Pressure  
Sea Level Pressure 30.30 in    
Wind  
Wind Speed 3 mph ()    
Max Wind Speed 5 mph    
Max Gust Speed -    
Visibility 6.6 miles    
Events Fog    
Averages and records for this station are not official NWS values.
T = Trace of Precipitation, MM = Missing Value Source: Averaged Metar Reports

Daily Weather History Graph

Daily Weather History Graph

Search for Another Location

Airport or City:

Trip Planner

Search our weather history database for the weather conditions in past years. The results will help you decide how hot, cold, wet, or windy it might be!

Date:

Astronomy

Oct. 07, 2013 Rise Set
Actual Time 7:51 AM CEST 7:06 PM CEST
Civil Twilight 7:19 AM CEST 7:39 PM CEST
Nautical Twilight 6:40 AM CEST 8:17 PM CEST
Astronomical Twilight 6:02 AM CEST 8:55 PM CEST
Moon 10:44 AM CEST (10/7) 8:17 PM CEST (10/7)
Length of Visible Light 12h 20m
Length of Day
11h 14m
Waxing Crescent, 7% of the Moon is Illuminated
Oct 7
Waxing Crescent
Oct 12
First Quarter
Oct 19
Full
Oct 27
Last Quarter
Nov 3
New

Hourly Weather History & Observations

Time (CEST) Temp. Windchill Dew Point Humidity Pressure Visibility Wind Dir Wind Speed Gust Speed Precip Events Conditions
12:20 AM 48.2 °F - 46.4 °F 93% 30.30 in - SSW 4.6 mph - N/A   Clear
12:50 AM 48.2 °F - 46.4 °F 93% 30.30 in - SSW 4.6 mph - N/A   Clear
1:20 AM 48.2 °F - 46.4 °F 93% 30.30 in - SSW 4.6 mph - N/A   Clear
1:50 AM 48.2 °F - 46.4 °F 93% 30.30 in 5.6 mi SW 3.5 mph - N/A   Unknown
2:00 AM 47 °F - 46 °F 97% 30.33 in 6 mi SW 4.5 mph - -   Clear
2:20 AM 46.4 °F 44.3 °F 46.4 °F 100% 30.30 in 5.6 mi SSW 4.6 mph - N/A   Partly Cloudy
2:50 AM 46.4 °F 45.2 °F 46.4 °F 100% 30.30 in 5.6 mi SSW 3.5 mph - N/A   Scattered Clouds
3:20 AM 48.2 °F - 48.2 °F 100% 30.30 in 5.6 mi South 3.5 mph - N/A   Mostly Cloudy
3:50 AM 48.2 °F - 48.2 °F 100% 30.30 in 5.6 mi South 2.3 mph - N/A   Mostly Cloudy
4:20 AM 48.2 °F - 48.2 °F 100% 30.30 in 5.6 mi South 2.3 mph - N/A   Mostly Cloudy
4:50 AM 50.0 °F - 48.2 °F 94% 30.30 in 5.6 mi SSE 2.3 mph - N/A   Mostly Cloudy
5:20 AM 48.2 °F - 48.2 °F 100% 30.30 in 5.6 mi South 2.3 mph - N/A   Mostly Cloudy
5:50 AM 48.2 °F - 46.4 °F 93% 30.30 in 5.0 mi South 2.3 mph - N/A   Scattered Clouds
6:20 AM 48.2 °F - 46.4 °F 93% 30.30 in 5.0 mi SSW 2.3 mph - N/A   Scattered Clouds
6:50 AM 48.2 °F - 46.4 °F 93% 30.30 in 5.0 mi South 3.5 mph - N/A   Unknown
7:20 AM 46.4 °F - 46.4 °F 100% 30.30 in 3.7 mi South 2.3 mph - N/A Fog Fog
7:50 AM 46.4 °F - 44.6 °F 93% 30.30 in 6.2 mi Variable 1.2 mph - N/A Fog Shallow Fog
8:20 AM 48.2 °F - 46.4 °F 93% 30.30 in 6.2 mi Calm Calm - N/A Fog Shallow Fog
8:50 AM 48.2 °F - 46.4 °F 93% 30.30 in 6.2 mi South 3.5 mph - N/A   Scattered Clouds
9:20 AM 50.0 °F - 50.0 °F 100% 30.30 in 6.2 mi Calm Calm - N/A   Mostly Cloudy
9:50 AM 51.8 °F - 50.0 °F 94% 30.33 in 6.2 mi SSE 2.3 mph - N/A   Mostly Cloudy
10:20 AM 53.6 °F - 50.0 °F 88% 30.33 in 6.2 mi SE 3.5 mph - N/A   Partly Cloudy
10:50 AM 55.4 °F - 53.6 °F 94% 30.33 in 6.2 mi Variable 1.2 mph - N/A   Partly Cloudy
11:00 AM 56 °F - 53 °F 85% 30.35 in 8 mi Calm Calm - -   Scattered Clouds
11:20 AM 60.8 °F - 55.4 °F 82% 30.33 in 6.2 mi Variable 1.2 mph - N/A   Partly Cloudy
11:50 AM 62.6 °F - 53.6 °F 72% 30.33 in 6.2 mi Variable 2.3 mph - N/A   Partly Cloudy
12:20 PM 62.6 °F - 51.8 °F 68% 30.33 in 6.2 mi Variable 1.2 mph - N/A   Partly Cloudy
12:50 PM 62.6 °F - 51.8 °F 68% 30.33 in 6.2 mi South 3.5 mph - N/A   Scattered Clouds
1:20 PM 62.6 °F - 53.6 °F 72% 30.33 in 6.2 mi Variable 2.3 mph - N/A   Scattered Clouds
1:50 PM 64.4 °F - 53.6 °F 68% 30.33 in 6.2 mi Variable 1.2 mph - N/A   Scattered Clouds
2:00 PM 65 °F - 54 °F 60% 30.33 in 11 mi 2.2 mph - -   Partly Cloudy
2:20 PM 64.4 °F - 51.8 °F 64% 30.30 in 6.2 mi Variable 1.2 mph - N/A   Scattered Clouds
2:50 PM 66.2 °F - 51.8 °F 60% 30.30 in 6.2 mi Variable 2.3 mph - N/A   Scattered Clouds
3:20 PM 66.2 °F - 50.0 °F 56% 30.30 in 6.2 mi NNW 4.6 mph - N/A   Scattered Clouds
3:50 PM 64.4 °F - 51.8 °F 64% 30.30 in 6.2 mi Variable 2.3 mph - N/A   Mostly Cloudy
4:20 PM 64.4 °F - 50.0 °F 59% 30.30 in 6.2 mi Variable 2.3 mph - N/A   Mostly Cloudy
4:50 PM 64.4 °F - 51.8 °F 64% 30.27 in 6.2 mi North 3.5 mph - N/A   Mostly Cloudy
5:00 PM 64 °F - 51 °F 54% 30.30 in 19 mi North 4.5 mph - -   Mostly Cloudy
5:20 PM 64.4 °F - 50.0 °F 59% 30.27 in 6.2 mi NNE 4.6 mph - N/A   Mostly Cloudy
5:50 PM 64.4 °F - 50.0 °F 59% 30.27 in 6.2 mi NNW 4.6 mph - N/A   Mostly Cloudy
6:20 PM 62.6 °F - 50.0 °F 63% 30.27 in 6.2 mi NNW 3.5 mph - N/A   Mostly Cloudy
6:50 PM 62.6 °F - 50.0 °F 63% 30.27 in 6.2 mi Variable 2.3 mph - N/A   Mostly Cloudy
7:20 PM 60.8 °F - 50.0 °F 68% 30.27 in 6.2 mi North 2.3 mph - N/A   Mostly Cloudy
7:50 PM 60.8 °F - 50.0 °F 68% 30.30 in 6.2 mi North 3.5 mph - N/A   Mostly Cloudy
8:00 PM 61 °F - 50 °F 59% 30.30 in 19 mi North 2.2 mph - -   Mostly Cloudy
8:20 PM 59.0 °F - 50.0 °F 72% 30.30 in 6.2 mi NW 1.2 mph - N/A   Mostly Cloudy
8:50 PM 59.0 °F - 53.6 °F 82% 30.30 in 6.2 mi Variable 1.2 mph - N/A   Mostly Cloudy
9:20 PM 59.0 °F - 51.8 °F 77% 30.30 in 6.2 mi NE 1.2 mph - N/A   Mostly Cloudy
9:50 PM 57.2 °F - 53.6 °F 88% 30.30 in 6.2 mi WNW 1.2 mph - N/A   Mostly Cloudy
10:20 PM 55.4 °F - 50.0 °F 82% 30.30 in 6.2 mi Variable 1.2 mph - N/A   Partly Cloudy
10:50 PM 51.8 °F - 48.2 °F 88% 30.30 in - South 2.3 mph - N/A   Clear
11:20 PM 51.8 °F - 50.0 °F 94% 30.30 in - South 4.6 mph - N/A   Clear
11:50 PM 51.8 °F - 48.2 °F 88% 30.30 in - South 3.5 mph - N/A   Clear